Weather History for Point Salines, Grenada

Change the Weather History Date:

Thursday, January 24, 2013

  Actual Average Record
Temperature  
Mean Temperature 79 °F -  
Max Temperature 85 °F 83 °F 87 °F (1997)
Min Temperature 73 °F 73 °F 71 °F (1997)
Cooling Degree Days 14    
Growing Degree Days 29 (Base 50)    
Moisture  
Dew Point 73 °F    
Average Humidity 78    
Maximum Humidity 89    
Minimum Humidity 59    
Precipitation  
Precipitation 0.00 in - - ()
Sea Level Pressure  
Sea Level Pressure 29.99 in    
Wind  
Wind Speed 9 mph ()    
Max Wind Speed 20 mph    
Max Gust Speed -    
Visibility 7.1 miles    
Events Rain    
Averages and records for this station are not official NWS values.
T = Trace of Precipitation, MM = Missing Value Source: Averaged Metar Reports

Daily Weather History Graph

Daily Weather History Graph

Search for Another Location

Airport:

Trip Planner

Search our weather history database for the weather conditions in past years. The results will help you decide how hot, cold, wet, or windy it might be!

Date:

Astronomy

Jan. 24, 2013 Rise Set
Actual Time 6:32 AM AST 6:06 PM AST
Civil Twilight 6:10 AM AST 6:28 PM AST
Nautical Twilight 5:44 AM AST 6:54 PM AST
Astronomical Twilight 5:18 AM AST 7:19 PM AST
Moon 4:08 PM AST (1/24) 4:20 AM AST (1/24)
Length of Visible Light 12h 18m
Length of Day
11h 33m
Waxing Gibbous, 94% of the Moon is Illuminated
Jan 24
Waxing Gibbous
Jan 27
Full
Feb 3
Last Quarter
Feb 10
New
Feb 17
First Quarter

Hourly Weather History & Observations

Time (AST) Temp. Heat Index Dew Point Humidity Pressure Visibility Wind Dir Wind Speed Gust Speed Precip Events Conditions
12:00 AM 77.0 °F - 73.4 °F 89% 30.01 in 6.2 mi East 6.9 mph - N/A   Mostly Cloudy
1:00 AM 77.0 °F - 73.4 °F 89% 29.98 in 6.2 mi East 8.1 mph - N/A   Scattered Clouds
2:00 AM 76 °F - 73 °F 88% 29.99 in 12 mi East 6.9 mph - -   Widespread Dust
2:00 AM 77.0 °F - 73.4 °F 89% 29.98 in 6.2 mi East 6.9 mph - N/A   Mostly Cloudy
3:00 AM 77.0 °F - 73.4 °F 89% 29.98 in 6.2 mi East 5.8 mph - N/A   Mostly Cloudy
4:00 AM 77.0 °F - 73.4 °F 89% 29.95 in 6.2 mi ENE 5.8 mph - N/A   Mostly Cloudy
5:00 AM 77 °F - 72 °F 80% 29.98 in 7 mi ENE 9.2 mph - - Rain Light Rain Showers
5:00 AM 77.0 °F - 71.6 °F 83% 29.98 in 6.2 mi ENE 9.2 mph - N/A   Mostly Cloudy
6:00 AM 77.0 °F - 71.6 °F 83% 29.98 in 6.2 mi ENE 10.4 mph - N/A   Scattered Clouds
7:00 AM 77.0 °F - 69.8 °F 78% 30.01 in 6.2 mi East 11.5 mph - N/A   Mostly Cloudy
8:00 AM 80 °F - 73 °F 74% 30.02 in 8 mi East 11.5 mph - -   Widespread Dust
8:00 AM 80.6 °F 85.4 °F 73.4 °F 79% 30.01 in 6.2 mi East 11.5 mph - N/A   Mostly Cloudy
9:00 AM 82.4 °F 88.2 °F 73.4 °F 74% 30.04 in 6.2 mi East 19.6 mph - N/A   Partly Cloudy
10:00 AM 84.2 °F 90.9 °F 73.4 °F 70% 30.04 in 6.2 mi East 18.4 mph - N/A   Partly Cloudy
11:00 AM 86 °F - 74 °F 59% 30.03 in 14 mi East 16.1 mph - -   Widespread Dust
11:00 AM 86.0 °F 93.4 °F 73.4 °F 66% 30.01 in 6.2 mi East 16.1 mph - N/A   Partly Cloudy
12:00 PM 84.2 °F 88.4 °F 69.8 °F 62% 30.01 in 6.2 mi East 11.5 mph - N/A   Partly Cloudy
1:00 PM 84.2 °F 90.9 °F 73.4 °F 70% 29.98 in 6.2 mi East 19.6 mph - N/A   Scattered Clouds
2:00 PM 86.0 °F 93.4 °F 73.4 °F 66% 29.95 in 6.2 mi East 16.1 mph - N/A   Partly Cloudy
3:00 PM 84.2 °F 90.9 °F 73.4 °F 70% 29.95 in 6.2 mi East 11.5 mph - N/A   Partly Cloudy
4:00 PM 82.4 °F 87.2 °F 71.6 °F 70% 29.95 in 6.2 mi East 18.4 mph - N/A   Scattered Clouds
5:00 PM 82 °F - 73 °F 69% 29.96 in 12 mi East 16.1 mph - -   Partly Cloudy
5:00 PM - - - N/A% 29.95 in 6.2 mi East 16.1 mph - N/A   Scattered Clouds
6:00 PM 80.6 °F 84.6 °F 71.6 °F 74% 29.95 in 6.2 mi East 9.2 mph - N/A   Scattered Clouds
7:00 PM 78.8 °F - 73.4 °F 83% 29.98 in 6.2 mi East 9.2 mph - N/A   Scattered Clouds
8:00 PM 78 °F - 73 °F 81% 30.00 in - East 9.2 mph - -   Widespread Dust
8:00 PM 78.8 °F - 73.4 °F 83% 29.98 in 6.2 mi East 9.2 mph - N/A   Scattered Clouds
9:00 PM 78.8 °F - 73.4 °F 83% 30.01 in 6.2 mi East 9.2 mph - N/A   Mostly Cloudy
10:00 PM 78.8 °F - 73.4 °F 83% 30.01 in 6.2 mi East 6.9 mph - N/A   Scattered Clouds
11:00 PM 78 °F - 74 °F 83% 30.00 in 12 mi East 8.1 mph - -   Widespread Dust
11:00 PM 77.0 °F - 73.4 °F 89% 30.01 in 6.2 mi East 8.1 mph - N/A   Partly Cloudy